[[{"header":{"parameterUnit":"m.s-1","parameterCategory":1,"la1":30.2991,"la2":30.254,"lo1":-89.0895,"lo2":-89.0444,"dy":0.0017,"dx":0.0017,"nx":28,"ny":28,"refTime":"2025-05-25T21:00:00:Z","depth":0,"parameterNumber":2,"parameterNumberName":"U-component_of_WINDS"},"data":[0,0,0,0,0,0,0,0,0,0,0,0,0,0,0,0,0,0,0,0,0,0,0,0,0,0,0,0,0,0,0,0,0,0,0,0,0,0,0,0,0,0,0,0,0,0,0,0,0,0,0,0,0,0,0,0,0,0,-0.1803,-0.1802,0,-0.1664,-0.1663,-0.1661,-0.1584,-0.1584,-0.1584,-0.1583,-0.1441,-0.1438,-0.1434,0,0,0,0,0,0,0,0,0,0,0,0,0,-0.2002,-0.1999,-0.1803,-0.1802,-0.18,-0.1665,-0.1663,-0.1661,-0.1584,-0.1584,-0.1583,-0.1583,-0.1442,-0.1438,-0.1434,0,0,0,0,0,0,0,0,0,0,0,0,0,-0.1895,-0.1998,-0.1804,-0.1745,-0.1739,-0.1665,-0.1663,-0.166,-0.1584,-0.1584,-0.1583,-0.1583,-0.1444,-0.1438,-0.1433,-0.1407,0,0,-0.1417,-0.1414,0,0,0,0,0,0,0,0,-0.1901,-0.1888,-0.1756,-0.1749,-0.1742,-0.1641,-0.1681,-0.1575,-0.1584,-0.1643,-0.1583,-0.1583,-0.1508,-0.1497,-0.1472,-0.14,-0.1394,-0.1416,-0.1413,-0.1411,-0.1409,0,0,0,0,0,0,0,-0.1909,-0.1893,-0.1748,-0.1754,-0.1745,-0.1726,-0.171,-0.166,-0.1579,-0.1638,-0.1632,-0.1616,-0.1504,-0.1477,-0.1468,-0.1392,-0.1416,-0.1412,-0.1408,-0.1406,-0.1292,-0.1292,0,0,0,0,0,0,-0.1925,-0.19,-0.1753,-0.1744,-0.1822,-0.1723,-0.1705,-0.1674,-0.1579,-0.1565,-0.1617,-0.1613,-0.1487,-0.1474,-0.1463,-0.1426,-0.1411,-0.1406,-0.1403,-0.1292,-0.1292,-0.1292,0,0,0,0,0,0,-0.193,-0.1913,-0.1758,-0.182,-0.1799,-0.172,-0.1685,-0.1671,-0.1644,-0.1563,-0.1549,-0.1604,-0.1486,-0.147,-0.1421,-0.142,-0.1403,-0.1398,-0.1292,-0.1292,-0.1292,-0.1352,0,0,0,0,0,0,-0.1936,-0.1915,-0.1904,-0.1821,-0.1796,-0.172,-0.1685,-0.1669,-0.1635,-0.1629,-0.1548,-0.1534,-0.1484,-0.143,-0.1416,-0.1412,-0.1394,-0.1291,-0.1292,-0.1292,-0.135,-0.1355,-0.1359,0,0,0,0,0,-0.1943,-0.1927,-0.1904,-0.1887,-0.1781,-0.172,-0.1706,-0.1649,-0.1636,-0.1624,-0.1572,-0.1537,-0.1422,-0.1425,-0.1409,-0.1404,-0.1291,-0.1292,-0.1292,-0.1348,-0.1354,-0.1358,0,0,0,0,0,0,-0.2013,-0.1915,-0.1889,-0.1845,-0.1791,-0.1707,-0.1691,-0.1656,-0.1606,-0.1602,-0.1534,-0.1516,-0.1474,-0.1434,-0.1439,-0.1374,-0.1353,-0.135,-0.1401,-0.1406,-0.141,-0.142,-0.139,0,0,0,0,0,-0.2023,-0.1981,-0.1898,-0.1867,-0.1841,-0.1771,-0.1742,-0.1703,-0.1645,-0.1622,-0.1566,-0.1511,-0.1462,-0.1432,-0.1383,-0.1344,-0.1325,-0.1332,-0.1337,-0.134,-0.1339,-0.1315,-0.1318,-0.1294,-0.1294,-0.1294,0,0,-0.2043,-0.1985,-0.1962,-0.1879,-0.1833,-0.1792,-0.1752,-0.171,-0.1678,-0.1615,-0.1565,-0.1523,-0.1457,-0.1413,-0.1391,-0.1378,-0.1341,-0.1341,-0.1345,-0.1341,-0.1316,-0.1318,-0.1321,-0.1294,-0.1294,-0.1294,0,0,-0.2059,-0.2011,-0.198,-0.1934,-0.1865,-0.1818,-0.1811,-0.1731,-0.1701,-0.165,-0.1602,-0.1563,-0.1481,-0.1436,-0.1402,-0.1402,-0.1367,-0.1388,-0.141,-0.1388,-0.139,-0.1391,-0.1391,-0.1391,-0.1386,-0.1386,-0.1387,0,-0.2094,-0.2029,-0.1968,-0.1928,-0.1893,-0.1834,-0.1802,-0.1761,-0.1679,-0.1657,-0.1644,-0.154,-0.1491,-0.1436,-0.1436,-0.1411,-0.14,-0.1397,-0.1394,-0.1395,-0.1395,-0.1394,-0.1394,-0.1389,-0.1389,-0.1389,-0.1388,0,-0.2074,-0.203,-0.2013,-0.1936,-0.1899,-0.1863,-0.1798,-0.1767,-0.1732,-0.1686,-0.1635,-0.1575,-0.1513,-0.1497,-0.1461,-0.1437,-0.1431,-0.1407,-0.1385,-0.1402,-0.1399,-0.1399,-0.1394,-0.1393,-0.1392,-0.1391,0,0,-0.213,-0.202,-0.2015,-0.1979,-0.1898,-0.1862,-0.1824,-0.1763,-0.1739,-0.1685,-0.1651,-0.1583,-0.156,-0.1522,-0.1481,-0.1462,-0.1466,-0.144,-0.1438,-0.1447,-0.1435,-0.1454,-0.1454,-0.1442,-0.1442,-0.1442,-0.1441,0,-0.2135,-0.2063,-0.2008,-0.1957,-0.1916,-0.1859,-0.1825,-0.1772,-0.1729,-0.1688,-0.1639,-0.1593,-0.1566,-0.1543,-0.1521,-0.147,-0.1462,-0.1469,-0.141,-0.1409,-0.1429,-0.1453,-0.1472,-0.1474,-0.1439,-0.1439,-0.1439,0,-0.2131,-0.2078,-0.2024,-0.1947,-0.1928,-0.1899,-0.1838,-0.1799,-0.1738,-0.1708,-0.1666,-0.1623,-0.158,-0.1562,-0.1503,-0.1509,-0.1481,-0.1453,-0.1451,-0.1444,-0.1425,-0.1446,-0.1473,-0.1474,-0.1437,-0.1437,-0.1437,0,-0.2178,-0.2093,-0.205,-0.2021,-0.193,-0.1911,-0.1872,-0.1811,-0.1778,-0.1725,-0.1703,-0.1646,-0.1615,-0.1572,-0.1515,-0.1508,-0.1462,-0.1439,-0.1436,-0.1437,-0.1428,-0.143,-0.1452,-0.1411,-0.1411,-0.1411,-0.1411,0,-0.2189,-0.2158,-0.2069,-0.2043,-0.2006,-0.1942,-0.1908,-0.1865,-0.181,-0.1774,-0.1721,-0.1689,-0.1616,-0.1574,-0.153,-0.1487,-0.1473,-0.1448,-0.1437,-0.1453,-0.1456,-0.1434,-0.1432,-0.1411,-0.1411,-0.1411,-0.1411,0,-0.2235,-0.2174,-0.2123,-0.2041,-0.202,-0.1997,-0.1927,-0.1899,-0.1853,-0.1808,-0.1793,-0.1721,-0.1669,-0.1608,-0.1537,-0.1507,-0.1469,-0.1451,-0.1489,-0.1483,-0.1483,-0.1484,-0.1492,-0.1489,-0.1451,-0.1451,-0.1451,0,-0.2246,-0.2221,-0.2136,-0.2108,-0.2071,-0.2026,-0.1992,-0.1928,-0.1895,-0.1823,-0.1804,-0.1749,-0.1701,-0.1621,-0.1562,-0.1507,-0.1489,-0.1495,-0.148,-0.1497,-0.1489,-0.1491,-0.1488,-0.1499,-0.15,-0.1501,-0.1501,0,-0.2273,-0.2244,-0.2196,-0.2139,-0.2099,-0.2051,-0.2,-0.198,-0.1906,-0.1872,-0.1818,-0.1781,-0.1708,-0.1654,-0.1592,-0.1552,-0.1515,-0.1506,-0.1503,-0.1519,-0.1542,-0.153,-0.1501,-0.1507,-0.1506,-0.1506,-0.1505,-0.1505,-0.2301,-0.2276,-0.2213,-0.2162,-0.2117,-0.2071,-0.204,-0.199,-0.1944,-0.188,-0.1845,-0.1793,-0.1732,-0.1644,-0.1606,-0.1564,-0.1551,-0.1546,-0.1544,-0.1544,-0.1549,-0.1549,-0.1552,-0.1552,-0.1552,-0.1552,-0.1551,0,-0.2325,-0.2281,-0.2235,-0.2166,-0.2126,-0.2093,-0.2036,-0.2004,-0.1959,-0.1905,-0.1859,-0.1798,-0.1745,-0.1682,-0.1625,-0.1603,-0.1585,-0.159,-0.1591,-0.1583,-0.1564,-0.1573,-0.1606,-0.1606,-0.1606,-0.1606,-0.1606,-0.1606,-0.2333,-0.2289,-0.2253,-0.2185,-0.2142,-0.2089,-0.2059,-0.2016,-0.1973,-0.1907,-0.1863,-0.1822,-0.1764,-0.1703,-0.1653,-0.1635,-0.1617,-0.1628,-0.1606,-0.1589,-0.1584,-0.158,-0.1588,-0.1624,-0.1624,-0.1628,-0.1629,-0.1629]},{"header":{"parameterUnit":"m.s-1","parameterCategory":1,"la1":30.2991,"la2":30.254,"lo1":-89.0895,"lo2":-89.0444,"dy":0.0017,"dx":0.0017,"nx":28,"ny":28,"refTime":"2025-05-25T21:00:00:Z","depth":0,"parameterNumber":3,"parameterNumberName":"V-component_of_WINDS"},"data":[0,0,0,0,0,0,0,0,0,0,0,0,0,0,0,0,0,0,0,0,0,0,0,0,0,0,0,0,0,0,0,0,0,0,0,0,0,0,0,0,0,0,0,0,0,0,0,0,0,0,0,0,0,0,0,0,0,0,4.0112,4.0111,0,4.005,4.0049,4.0048,4.0033,4.0033,4.0034,4.0034,3.9963,3.9961,3.9959,0,0,0,0,0,0,0,0,0,0,0,0,0,4.0212,4.021,4.0112,4.0111,4.0111,4.005,4.0049,4.0048,4.0033,4.0033,4.0034,4.0034,3.9964,3.9961,3.9959,0,0,0,0,0,0,0,0,0,0,0,0,0,4.0161,4.021,4.0112,4.0096,4.0094,4.005,4.0049,4.0048,4.0033,4.0033,4.0034,4.0034,3.9965,3.9962,3.9958,3.9925,0,0,3.9948,3.9946,0,0,0,0,0,0,0,0,4.0164,4.0157,4.0099,4.0097,4.0094,4.005,4.0058,4.0006,4.0032,4.0055,4.0034,4.0035,3.9991,3.9986,3.9972,3.9921,3.9918,3.9948,3.9945,3.9944,3.9943,0,0,0,0,0,0,0,4.0167,4.016,4.0087,4.0098,4.0095,4.009,4.0083,4.0048,4.002,4.0054,4.0052,4.0046,3.999,3.9976,3.997,3.9917,3.9948,3.9945,3.9942,3.9941,3.9836,3.9835,0,0,0,0,0,0,4.0175,4.0163,4.0089,4.0085,4.0132,4.0087,4.008,4.0063,4.0021,4.0015,4.0045,4.0045,3.9981,3.9974,3.9968,3.9926,3.9944,3.9941,3.9939,3.9837,3.9836,3.9835,0,0,0,0,0,0,4.0177,4.0168,4.0092,4.0124,4.0114,4.0085,4.0066,4.0062,4.0048,4.0014,4.0009,4.0036,3.9981,3.9973,3.9936,3.9924,3.9939,3.9936,3.9838,3.9836,3.9835,3.9843,0,0,0,0,0,0,4.018,4.0169,4.0157,4.0124,4.0112,4.0063,4.0066,4.006,4.0043,4.0042,4.0004,3.9999,3.9981,3.9941,3.9933,3.9919,3.9934,3.9839,3.9837,3.9836,3.9843,3.9842,3.9841,0,0,0,0,0,4.0184,4.016,4.0157,4.0148,4.0097,4.0062,4.0055,4.0037,4.0042,4.0029,4.0008,4.0,3.9927,3.9938,3.9928,3.9913,3.9839,3.9838,3.9836,3.9844,3.9842,3.9841,0,0,0,0,0,0,4.019,4.0155,4.0151,4.0117,4.0093,4.0059,4.0042,4.0036,4.0008,4.0009,3.9986,3.9978,3.9943,3.9924,3.9937,3.9879,3.9883,3.9879,3.9892,3.989,3.9889,3.9894,3.9931,0,0,0,0,0,4.0188,4.0165,4.0134,4.0107,4.0095,4.0071,4.0055,4.0044,4.0017,4.0006,3.9982,3.9955,3.9926,3.9907,3.9878,3.9841,3.9832,3.9826,3.9824,3.9823,3.982,3.98,3.9796,3.983,3.983,3.983,0,0,4.0182,4.016,4.0146,4.0108,4.0088,4.0062,4.0062,4.0035,4.0016,4.0001,3.9966,3.9948,3.9916,3.9879,3.9861,3.9862,3.9809,3.9821,3.9821,3.9818,3.9798,3.9794,3.9792,3.9828,3.9829,3.9829,0,0,4.0159,4.0141,4.0116,4.0097,4.0068,4.0052,4.0047,4.0015,4.0003,3.9968,3.9957,3.9932,3.9883,3.9861,3.9843,3.9814,3.9805,3.9805,3.9797,3.9777,3.9775,3.9772,3.9762,3.9758,3.9802,3.9802,3.9802,0,4.0155,4.0119,4.0103,4.0078,4.0061,4.005,4.0024,4.0005,3.9967,3.9955,3.9957,3.9896,3.9873,3.9832,3.9825,3.9811,3.9802,3.9808,3.9777,3.9774,3.9771,3.9761,3.9758,3.9802,3.9802,3.9802,3.9802,0,4.0115,4.009,4.0073,4.0041,4.0022,3.9996,3.9975,3.9958,3.9948,3.9932,3.9897,3.987,3.9836,3.9825,3.9814,3.9782,3.9784,3.9782,3.9785,3.9769,3.9759,3.9755,3.9802,3.9802,3.9802,3.9802,0,0,4.0093,4.0054,4.0048,4.0034,4.0002,3.9981,3.9954,3.9924,3.9909,3.9884,3.986,3.9819,3.9818,3.9798,3.9785,3.9768,3.9747,3.9768,3.9767,3.9765,3.9709,3.9711,3.9707,3.9742,3.9741,3.974,3.9712,0,4.0066,4.0021,4.0008,3.9969,3.9946,3.9935,3.9912,3.9889,3.9874,3.985,3.9831,3.9803,3.9804,3.9792,3.9774,3.9753,3.9735,3.9755,3.9718,3.9717,3.9727,3.9702,3.9703,3.9678,3.9708,3.9707,3.9707,0,4.0029,4.0006,3.9966,3.9939,3.9928,3.9908,3.9879,3.9857,3.9831,3.9821,3.98,3.9789,3.9759,3.9765,3.9724,3.9738,3.9722,3.971,3.9708,3.9704,3.9711,3.9696,3.9669,3.9666,3.9701,3.9701,3.9702,0,4.0017,3.9976,3.9947,3.9935,3.9902,3.9888,3.9873,3.9848,3.9831,3.9805,3.9794,3.9764,3.9748,3.9724,3.9705,3.9711,3.9666,3.967,3.9656,3.9656,3.9646,3.9647,3.9616,3.9636,3.9636,3.9636,3.9636,0,3.9988,3.9964,3.9942,3.9924,3.9896,3.988,3.9853,3.9837,3.9815,3.9793,3.9781,3.976,3.9737,3.9712,3.9697,3.9665,3.9657,3.9647,3.9644,3.9648,3.965,3.9637,3.9639,3.9635,3.9635,3.9635,3.9636,0,3.997,3.9954,3.9922,3.9895,3.9887,3.9868,3.9844,3.9826,3.9811,3.9783,3.9775,3.975,3.9721,3.97,3.9661,3.9651,3.9617,3.9613,3.9627,3.9625,3.9612,3.9614,3.9572,3.9566,3.959,3.959,3.959,0,3.9953,3.9935,3.9906,3.9892,3.9878,3.9855,3.9839,3.9822,3.9805,3.9775,3.9759,3.973,3.9706,3.9659,3.9637,3.9607,3.9602,3.959,3.9598,3.9604,3.9602,3.9604,3.9602,3.9589,3.9588,3.9588,3.9588,0,3.9924,3.9918,3.9896,3.9871,3.9853,3.9832,3.9811,3.9799,3.9779,3.976,3.9732,3.9713,3.9675,3.9646,3.9615,3.9597,3.9589,3.9586,3.9581,3.9586,3.9595,3.959,3.9624,3.9587,3.9587,3.9587,3.9587,3.9587,3.9905,3.9889,3.9868,3.9844,3.9827,3.9808,3.979,3.9774,3.9751,3.9721,3.9712,3.9682,3.9656,3.9614,3.9597,3.9572,3.9573,3.9566,3.9564,3.9562,3.9563,3.9599,3.9566,3.9566,3.9566,3.9566,3.9566,0,3.9876,3.9863,3.9841,3.9814,3.9795,3.9792,3.9768,3.9752,3.9727,3.9705,3.9683,3.965,3.9622,3.9598,3.9569,3.9554,3.9549,3.9547,3.9547,3.9544,3.9564,3.9571,3.9551,3.9551,3.9551,3.9551,3.9551,3.9551,3.9859,3.9832,3.9823,3.9787,3.9773,3.9746,3.9733,3.9715,3.9698,3.9664,3.9641,3.9627,3.9604,3.9573,3.9547,3.9541,3.953,3.9529,3.9521,3.954,3.9542,3.9544,3.9551,3.9527,3.9527,3.9503,3.9503,3.9503]}]]